Regional Weather Roundup
Issued by NWS Nashville, TN

Home | Current Version | Previous Version | Text Only | Print | Product List | Glossary On
Versions: 1 2 3 4 5 6 7 8 9 10 11 12 13 14 15 16 17 18 19 20 21 22 23 24 25 26 27 28 29 30 31 32 33 34 35 36 37 38 39 40 41 42 43 44 45 46 47 48 49 50
000
ASUS44 KOHX 261410
RWROHX
MIDDLE TENNESSEE HOURLY WEATHER ROUNDUP
NATIONAL WEATHER SERVICE NASHVILLE TN
900 AM CDT TUE MAY 26 2015

NOTE: "FAIR" INDICATES FEW OR NO CLOUDS BELOW 12,000 FEET WITH
NO SIGNIFICANT WEATHER AND/OR OBSTRUCTIONS TO VISIBILITY.

* THESE REPORTS ARE NOT UNDER NWS QUALITY CONTROL AND MAY NOT
  REPORT WEATHER SUCH AS PRECIPITATION AND FOG.


TNZ005>011-023>034-057-059-062>066-078-080-261500
...NORTHERN MIDDLE TENNESSEE...

CITY           SKY/WX    TMP DP  RH WIND       PRES   REMARKS
CASTALIAN SPRG   N/A     77  72  83 S3        30.11S
CLARKSVILLE    CLOUDY    73  67  81 S15G22    30.03F
CROSSVILLE     PTSUNNY   72  66  81 S12G17    30.21F
GLADEVILLE*      N/A     75  70  83 SE5       30.05
JOELTON*         N/A     73  70  88 S3        30.00F
MOUNT JULIET*    N/A     75  70  83 CALM      29.94S
NASHVILLE      CLOUDY    74  68  81 S16G28    30.10S
OLD HICKORY*     N/A     73  72  94 SE2       29.72S
PORTLAND       PTSUNNY   73  66  78 S14       30.08F
ROCKWOOD       CLOUDY    66  66 100 S5        30.23S
SMYRNA         PTSUNNY   76  70  82 S10G21    30.11S
SPARTA         MOSUNNY   77  70  78 S14       30.14F
$$
TNZ056-058-060-061-075>077-079-093>097-261500
...SOUTHERN MIDDLE TENNESSEE...

CITY           SKY/WX    TMP DP  RH WIND       PRES   REMARKS
COLUMBIA       CLOUDY    73  70  88 S12       30.09S
LEWISBURG      PTSUNNY   76  68  76 S12       30.12R
MANCHESTER*      N/A     75  28  17 CALM      30.09F
MCMINNVILLE    MOSUNNY   77  70  78 S8        30.15F
MOUNT PLEASANT   N/A     72  70  94 S1        30.03S
SHELBYVILLE    CLOUDY    75  70  83 S10       30.13F
TULLAHOMA      PTSUNNY   73  66  78 S9        30.16S
WINCHESTER     MOSUNNY   75  68  78 S16       30.16F
$$


...KEY TO REMARKS...
VSB - VISIBILITY IN MILES
WCI - WIND CHILL INDEX
HX  - HEAT INDEX




USA.gov is the U.S. government's official web portal to all federal, state and local government web resources and services.